[[{"header":{"parameterUnit":"m.s-1","parameterCategory":1,"la1":30.2991,"la2":30.254,"lo1":-89.0895,"lo2":-89.0444,"dy":0.0017,"dx":0.0017,"nx":28,"ny":28,"refTime":"2024-03-19T21:00:00:Z","depth":0,"parameterNumber":2,"parameterNumberName":"U-component_of_WINDS"},"data":[0,0,0,0,0,0,0,0,0,0,0,0,0,0,0,0,0,0,0,0,0,0,0,0,0,0,0,0,0,0,0,0,0,0,0,0,0,0,0,0,0,0,0,0,0,0,0,0,0,0,0,0,0,0,0,0,0,0,-3.2644,-3.2644,0,-3.2643,-3.2643,-3.2643,-3.2552,-3.2549,-3.2547,-3.2544,-3.2545,-3.2548,-3.255,0,0,0,0,0,0,0,0,0,0,0,0,0,-3.2565,-3.2567,-3.2644,-3.2644,-3.2644,-3.2643,-3.2643,-3.2643,-3.2552,-3.2549,-3.2546,-3.2543,-3.2545,-3.2547,-3.255,0,0,0,0,0,0,0,0,0,0,0,0,0,-3.2586,-3.2568,-3.2644,-3.2598,-3.2594,-3.2643,-3.2643,-3.2643,-3.2553,-3.2549,-3.2545,-3.2542,-3.2544,-3.2547,-3.255,-3.2644,0,0,-3.2561,-3.2562,0,0,0,0,0,0,0,0,-3.2585,-3.2589,-3.2605,-3.2601,-3.2597,-3.2594,-3.2616,-3.2644,-3.2554,-3.2568,-3.2544,-3.254,-3.2564,-3.2566,-3.2574,-3.2644,-3.2644,-3.2561,-3.2563,-3.2565,-3.2566,0,0,0,0,0,0,0,-3.2583,-3.2588,-3.2643,-3.2605,-3.26,-3.2578,-3.2577,-3.2621,-3.2587,-3.2567,-3.256,-3.2561,-3.2562,-3.2571,-3.2573,-3.2644,-3.2561,-3.2564,-3.2566,-3.2567,-3.2791,-3.2795,0,0,0,0,0,0,-3.2588,-3.2588,-3.2643,-3.2643,-3.2582,-3.2582,-3.2581,-3.2598,-3.2586,-3.2581,-3.2564,-3.2557,-3.2567,-3.2569,-3.2573,-3.2682,-3.2565,-3.2568,-3.257,-3.2787,-3.2792,-3.2796,0,0,0,0,0,0,-3.2587,-3.2594,-3.2643,-3.2614,-3.2618,-3.2587,-3.2608,-3.26,-3.2609,-3.2584,-3.2578,-3.258,-3.2564,-3.2568,-3.2627,-3.2681,-3.2569,-3.2572,-3.2783,-3.2789,-3.2794,-3.2901,0,0,0,0,0,0,-3.2585,-3.2594,-3.2629,-3.2615,-3.262,-3.2698,-3.2611,-3.2603,-3.2615,-3.2606,-3.2597,-3.2592,-3.2561,-3.2622,-3.263,-3.2683,-3.2575,-3.2778,-3.2786,-3.2792,-3.2893,-3.291,-3.2925,0,0,0,0,0,-3.2583,-3.2659,-3.2631,-3.2639,-3.2664,-3.2701,-3.2704,-3.2667,-3.262,-3.2655,-3.2639,-3.2593,-3.2674,-3.2629,-3.2637,-3.2692,-3.2774,-3.2783,-3.2792,-3.2886,-3.2907,-3.2924,0,0,0,0,0,0,-3.2681,-3.2657,-3.2625,-3.27,-3.2703,-3.2685,-3.2729,-3.269,-3.2707,-3.2697,-3.265,-3.2649,-3.2716,-3.2709,-3.2661,-3.2782,-3.2716,-3.2727,-3.2784,-3.2804,-3.282,-3.282,-3.2578,0,0,0,0,0,-3.2711,-3.2743,-3.272,-3.2789,-3.2792,-3.276,-3.2775,-3.2746,-3.2748,-3.2749,-3.2737,-3.274,-3.2766,-3.2785,-3.2807,-3.2891,-3.2888,-3.2933,-3.2949,-3.2962,-3.2972,-3.3017,-3.3037,-3.2825,-3.2825,-3.2825,0,0,-3.2774,-3.2765,-3.2788,-3.2808,-3.2807,-3.2842,-3.2762,-3.2802,-3.2827,-3.2755,-3.281,-3.2801,-3.2802,-3.2874,-3.2905,-3.2871,-3.303,-3.2973,-3.2984,-3.2987,-3.3028,-3.3048,-3.3066,-3.2831,-3.283,-3.2829,0,0,-3.2907,-3.2903,-3.2959,-3.296,-3.2959,-3.2938,-3.2952,-3.294,-3.2931,-3.2986,-3.2932,-3.2962,-3.3007,-3.301,-3.3018,-3.3152,-3.311,-3.3161,-3.3245,-3.3289,-3.3305,-3.332,-3.3368,-3.3386,-3.3171,-3.3171,-3.3171,0,-3.2985,-3.3035,-3.2993,-3.3037,-3.3048,-3.2983,-3.304,-3.3043,-3.305,-3.3059,-3.3021,-3.3077,-3.3073,-3.3145,-3.3178,-3.3186,-3.3201,-3.3162,-3.3306,-3.332,-3.3333,-3.3379,-3.3397,-3.3177,-3.3177,-3.3176,-3.3175,0,-3.3132,-3.3168,-3.3213,-3.3222,-3.3237,-3.3288,-3.3254,-3.3275,-3.3244,-3.3227,-3.3284,-3.3277,-3.3297,-3.3312,-3.3282,-3.338,-3.3359,-3.3314,-3.3246,-3.336,-3.3403,-3.342,-3.3186,-3.3184,-3.3182,-3.3181,0,0,-3.3327,-3.3312,-3.3329,-3.3332,-3.3327,-3.3354,-3.3402,-3.3421,-3.344,-3.3447,-3.3487,-3.3527,-3.3486,-3.3494,-3.3465,-3.3503,-3.3611,-3.3454,-3.3453,-3.3484,-3.3718,-3.3753,-3.3774,-3.3583,-3.3586,-3.3588,-3.3719,0,-3.3456,-3.3536,-3.35,-3.3584,-3.3617,-3.3556,-3.3597,-3.3599,-3.3584,-3.361,-3.3593,-3.3623,-3.3566,-3.3571,-3.3606,-3.359,-3.3658,-3.358,-3.3619,-3.3621,-3.3622,-3.3796,-3.3832,-3.3955,-3.3735,-3.3738,-3.3739,0,-3.3617,-3.3631,-3.3719,-3.3708,-3.372,-3.3758,-3.3774,-3.3799,-3.3799,-3.3786,-3.3796,-3.3758,-3.3804,-3.3736,-3.3799,-3.3748,-3.3761,-3.3756,-3.376,-3.3763,-3.3688,-3.3804,-3.3993,-3.4012,-3.3765,-3.3763,-3.3761,0,-3.3751,-3.3792,-3.385,-3.3854,-3.3843,-3.3871,-3.3868,-3.3865,-3.3879,-3.3893,-3.3901,-3.392,-3.3931,-3.3946,-3.3914,-3.3868,-3.3982,-3.3912,-3.3973,-3.3974,-3.4,-3.3999,-3.4196,-3.4008,-3.4008,-3.4008,-3.4007,0,-3.39,-3.3956,-3.391,-3.3946,-3.4007,-3.3965,-3.4027,-3.4017,-3.4015,-3.4047,-3.3996,-3.4028,-3.3983,-3.4011,-3.3986,-3.4043,-3.4048,-3.4039,-3.4032,-3.4044,-3.4045,-3.4052,-3.4043,-3.4013,-3.4012,-3.4011,-3.401,0,-3.406,-3.4032,-3.4091,-3.4075,-3.4073,-3.4119,-3.4105,-3.4138,-3.4119,-3.4162,-3.4169,-3.4141,-3.4171,-3.414,-3.4168,-3.4151,-3.4228,-3.4208,-3.4228,-3.4222,-3.4285,-3.428,-3.4494,-3.452,-3.4316,-3.4318,-3.4319,0,-3.4157,-3.4199,-3.4188,-3.4206,-3.4206,-3.4236,-3.425,-3.4211,-3.4228,-3.4232,-3.4264,-3.429,-3.4308,-3.4359,-3.4341,-3.4362,-3.4343,-3.4416,-3.4346,-3.4357,-3.4345,-3.4343,-3.4347,-3.4431,-3.4433,-3.4435,-3.4437,0,-3.4333,-3.4316,-3.4339,-3.4357,-3.4375,-3.4387,-3.4396,-3.4414,-3.4372,-3.4394,-3.4424,-3.4439,-3.4467,-3.4494,-3.4509,-3.4506,-3.4465,-3.4459,-3.4474,-3.4488,-3.4498,-3.4494,-3.4268,-3.4455,-3.4453,-3.4451,-3.445,-3.445,-3.4464,-3.4499,-3.4497,-3.4524,-3.4526,-3.4535,-3.4565,-3.455,-3.4574,-3.4594,-3.4569,-3.4607,-3.4606,-3.4623,-3.4625,-3.4653,-3.4622,-3.4645,-3.465,-3.4657,-3.4666,-3.4493,-3.4656,-3.4655,-3.4655,-3.4655,-3.4654,0,-3.4638,-3.4633,-3.4658,-3.4672,-3.4693,-3.4652,-3.4659,-3.468,-3.4713,-3.4716,-3.4735,-3.477,-3.4795,-3.4779,-3.4801,-3.4827,-3.4809,-3.4834,-3.4832,-3.4832,-3.4692,-3.4677,-3.4849,-3.4848,-3.4848,-3.4848,-3.4848,-3.4848,-3.473,-3.4787,-3.4771,-3.4828,-3.4822,-3.4858,-3.4866,-3.4874,-3.4876,-3.4918,-3.4938,-3.4927,-3.4923,-3.4944,-3.4965,-3.496,-3.4971,-3.5003,-3.4991,-3.4861,-3.4842,-3.4824,-3.4809,-3.5005,-3.5006,-3.5128,-3.5129,-3.513]},{"header":{"parameterUnit":"m.s-1","parameterCategory":1,"la1":30.2991,"la2":30.254,"lo1":-89.0895,"lo2":-89.0444,"dy":0.0017,"dx":0.0017,"nx":28,"ny":28,"refTime":"2024-03-19T21:00:00:Z","depth":0,"parameterNumber":3,"parameterNumberName":"V-component_of_WINDS"},"data":[0,0,0,0,0,0,0,0,0,0,0,0,0,0,0,0,0,0,0,0,0,0,0,0,0,0,0,0,0,0,0,0,0,0,0,0,0,0,0,0,0,0,0,0,0,0,0,0,0,0,0,0,0,0,0,0,0,0,-3.9305,-3.9305,0,-3.9338,-3.9338,-3.9338,-3.9276,-3.9274,-3.9272,-3.927,-3.9303,-3.9305,-3.9308,0,0,0,0,0,0,0,0,0,0,0,0,0,-3.9187,-3.919,-3.9305,-3.9305,-3.9306,-3.9338,-3.9338,-3.9338,-3.9276,-3.9274,-3.9271,-3.9269,-3.9302,-3.9305,-3.9309,0,0,0,0,0,0,0,0,0,0,0,0,0,-3.9231,-3.919,-3.9305,-3.9279,-3.9277,-3.9337,-3.9338,-3.9339,-3.9277,-3.9274,-3.9271,-3.9268,-3.9301,-3.9305,-3.9309,-3.9397,0,0,-3.9322,-3.9324,0,0,0,0,0,0,0,0,-3.9228,-3.9235,-3.9282,-3.9281,-3.9278,-3.93,-3.9308,-3.9358,-3.9278,-3.9277,-3.927,-3.9266,-3.9304,-3.9308,-3.9321,-3.9398,-3.94,-3.9322,-3.9325,-3.9326,-3.9328,0,0,0,0,0,0,0,-3.9226,-3.9234,-3.9318,-3.9283,-3.9281,-3.9265,-3.9268,-3.9318,-3.9307,-3.9277,-3.9272,-3.9277,-3.9303,-3.9317,-3.9321,-3.94,-3.9322,-3.9326,-3.9328,-3.933,-3.955,-3.9554,0,0,0,0,0,0,-3.9226,-3.9231,-3.9317,-3.9319,-3.9245,-3.9269,-3.9272,-3.9296,-3.9307,-3.9305,-3.928,-3.9274,-3.9311,-3.9316,-3.9322,-3.9425,-3.9326,-3.933,-3.9333,-3.9547,-3.9551,-3.9555,0,0,0,0,0,0,-3.9224,-3.9234,-3.9315,-3.9274,-3.9283,-3.9275,-3.9301,-3.9298,-3.9312,-3.9309,-3.9307,-3.9296,-3.9309,-3.9316,-3.9378,-3.9426,-3.9332,-3.9336,-3.9543,-3.9548,-3.9553,-3.9633,0,0,0,0,0,0,-3.9221,-3.9234,-3.9267,-3.9275,-3.9286,-3.9372,-3.9304,-3.9301,-3.932,-3.9313,-3.9324,-3.9323,-3.9307,-3.9373,-3.9383,-3.943,-3.9339,-3.9539,-3.9545,-3.9551,-3.9626,-3.964,-3.9652,0,0,0,0,0,-3.9217,-3.9289,-3.9269,-3.928,-3.9328,-3.9375,-3.9381,-3.9362,-3.9324,-3.9358,-3.9355,-3.9322,-3.9419,-3.938,-3.939,-3.9439,-3.9536,-3.9544,-3.9551,-3.962,-3.9638,-3.9652,0,0,0,0,0,0,-3.9286,-3.9289,-3.9268,-3.9345,-3.936,-3.9364,-3.9406,-3.938,-3.9407,-3.9399,-3.9373,-3.9376,-3.9444,-3.9447,-3.9404,-3.9524,-3.9471,-3.9481,-3.952,-3.9536,-3.9549,-3.9547,-3.9343,0,0,0,0,0,-3.9311,-3.935,-3.9349,-3.9417,-3.9426,-3.9415,-3.9435,-3.9419,-3.9433,-3.944,-3.9442,-3.9457,-3.9491,-3.9513,-3.9544,-3.9626,-3.9627,-3.9665,-3.9678,-3.9689,-3.9698,-3.9741,-3.9758,-3.9579,-3.9579,-3.9579,0,0,-3.9362,-3.9368,-3.9394,-3.9431,-3.9441,-3.9482,-3.9421,-3.9466,-3.9496,-3.9446,-3.9506,-3.9508,-3.9523,-3.9596,-3.9628,-3.9601,-3.9747,-3.9698,-3.9707,-3.971,-3.9751,-3.9768,-3.9783,-3.9585,-3.9584,-3.9583,0,0,-3.9475,-3.9483,-3.9541,-3.9552,-3.9568,-3.956,-3.9574,-3.9582,-3.9582,-3.9641,-3.9604,-3.9639,-3.9697,-3.9709,-3.9723,-3.9841,-3.9812,-3.9851,-3.992,-3.9962,-3.9976,-3.9989,-4.0031,-4.0046,-3.986,-3.986,-3.986,0,-3.9536,-3.9596,-3.9574,-3.9622,-3.9639,-3.9596,-3.9654,-3.9665,-3.9691,-3.9703,-3.9673,-3.9745,-3.9752,-3.9827,-3.9856,-3.9868,-3.9883,-3.985,-3.9976,-3.9988,-4.0,-4.004,-4.0056,-3.9865,-3.9865,-3.9864,-3.9864,0,-3.967,-3.9712,-3.9757,-3.9782,-3.9805,-3.9857,-3.9842,-3.9867,-3.9849,-3.9844,-3.9904,-3.9911,-3.9943,-3.9959,-3.9941,-4.0031,-4.0014,-3.998,-3.9926,-4.0022,-4.0059,-4.0074,-3.9872,-3.987,-3.9869,-3.9868,0,0,-3.983,-3.9842,-3.9859,-3.987,-3.9884,-3.9916,-3.9966,-3.9997,-4.0019,-4.0037,-4.0079,-4.0129,-4.0097,-4.0113,-4.0096,-4.0134,-4.0226,-4.0095,-4.0095,-4.012,-4.0326,-4.0353,-4.0371,-4.0207,-4.0209,-4.0212,-4.0325,0,-3.9943,-4.003,-4.0011,-4.0097,-4.0135,-4.0094,-4.0138,-4.0151,-4.0147,-4.0179,-4.0174,-4.0211,-4.0166,-4.0176,-4.0211,-4.0208,-4.0268,-4.0199,-4.0245,-4.0247,-4.0244,-4.039,-4.0418,-4.0525,-4.034,-4.0342,-4.0344,0,-4.0087,-4.0111,-4.0201,-4.0208,-4.0224,-4.0264,-4.029,-4.0321,-4.0334,-4.0329,-4.0347,-4.0322,-4.0371,-4.0316,-4.0383,-4.0337,-4.0354,-4.0356,-4.0359,-4.0364,-4.0302,-4.04,-4.0559,-4.0576,-4.0366,-4.0365,-4.0363,0,-4.0195,-4.025,-4.0311,-4.0321,-4.0331,-4.036,-4.0366,-4.0376,-4.0396,-4.0419,-4.0431,-4.0459,-4.0475,-4.0497,-4.0481,-4.0442,-4.0551,-4.0494,-4.0548,-4.0549,-4.0574,-4.0573,-4.074,-4.0584,-4.0584,-4.0583,-4.0583,0,-4.0324,-4.0381,-4.036,-4.0397,-4.0459,-4.0436,-4.0498,-4.0498,-4.0508,-4.0544,-4.051,-4.0545,-4.0521,-4.0554,-4.0541,-4.0599,-4.0606,-4.0603,-4.0599,-4.0607,-4.0607,-4.0619,-4.0611,-4.0588,-4.0587,-4.0586,-4.0585,0,-4.0456,-4.0444,-4.0508,-4.0512,-4.0514,-4.056,-4.0563,-4.0598,-4.0591,-4.0638,-4.0647,-4.0637,-4.0674,-4.0659,-4.0698,-4.069,-4.0764,-4.075,-4.076,-4.0757,-4.0812,-4.0808,-4.0993,-4.1016,-4.0844,-4.0846,-4.0847,0,-4.054,-4.0582,-4.0591,-4.0613,-4.0622,-4.0658,-4.0677,-4.0656,-4.0678,-4.0696,-4.0729,-4.0762,-4.0788,-4.0849,-4.0844,-4.0874,-4.0861,-4.0923,-4.0865,-4.0871,-4.0863,-4.0861,-4.0865,-4.0936,-4.0938,-4.0939,-4.0941,0,-4.069,-4.0682,-4.0712,-4.074,-4.0765,-4.0786,-4.0804,-4.0824,-4.0803,-4.0829,-4.0867,-4.0887,-4.0926,-4.096,-4.0986,-4.0991,-4.0963,-4.0959,-4.0973,-4.0982,-4.0987,-4.0986,-4.0793,-4.0955,-4.0954,-4.0953,-4.0952,-4.0951,-4.0801,-4.0837,-4.0849,-4.0883,-4.0894,-4.0912,-4.0945,-4.0942,-4.0973,-4.1004,-4.0989,-4.1032,-4.1044,-4.1076,-4.1085,-4.1118,-4.1093,-4.1114,-4.1119,-4.1125,-4.1133,-4.098,-4.1122,-4.1122,-4.1121,-4.1121,-4.1121,0,-4.0949,-4.0955,-4.0987,-4.1013,-4.1041,-4.1011,-4.1029,-4.1054,-4.1093,-4.1106,-4.1132,-4.1175,-4.1208,-4.1206,-4.1235,-4.1263,-4.125,-4.1271,-4.127,-4.1271,-4.1152,-4.1138,-4.1281,-4.1281,-4.1281,-4.1281,-4.1281,-4.128,-4.103,-4.109,-4.1083,-4.1148,-4.1152,-4.1195,-4.1208,-4.1224,-4.1234,-4.1284,-4.1311,-4.1309,-4.1316,-4.1346,-4.1375,-4.1373,-4.1386,-4.1412,-4.1406,-4.1295,-4.128,-4.1265,-4.125,-4.1415,-4.1415,-4.1522,-4.1523,-4.1524]}]]